SL-8 DEB, 12404

Orbit data source: Space-Track

SL-8 DEB, 12404 is space debris in LEO originally from a launch on Mon, 17 Mar 1980 UTC launched from the Plesetsk Missile And Space Complex (PKMTR). Debris objects in space refer to the collection of defunct objects orbiting the Earth. Examples of debris include non-operational satellites, rocket bodies, and fragments generated from explosions, collisions, or faulty payload assembly.

Loading next visibility...
Identifier
12404, 1980-022C
Orbit
LEO
Country
Flag of CISCIS
Related business
Manufacturer
Unknown
Mission
Spacecraft
Bus & Motor
Unknown
Mass
Unknown
Launch date (UTC)
1980-03-17 (46 years ago)
Launch vehicle
Unknown
Launch site
Plesetsk Missile And Space Complex (PKMTR)
Object type
Payload
Rocket body
Debris
Shape & HBR
Unknown shape, 0.1 m
Radar Cross Section
Medium (>0.1 m² and <1 m²)

Expand to show TLE details & history
Last TLE update: 2 days ago

TLE from 2 days ago
0 SL-8 DEB
1 12404U 80022C   26171.05524221  .00006235  00000-0  12332-2 0  9990
2 12404  82.9063 202.1615 0010199  54.5905 305.6250 14.62212581367588
Epoch: 2026-06-20T01:19Z
TLE epoch observation values (Epoch: 2026-06-20T01:19:32.926Z)
Latitude
-0.0001°
Longitude
-86.00106°
Altitude
684.866 km
Speed
7.516 km/s
True Right ascension
13h 28m 38s
True Declination
0° 00' 00"
Sunlit
Object was in daylight at epoch
Visualization orbit readout
Latitude
Unknown
Longitude
Unknown
Altitude
Unknown
Speed
Unknown
Apparent Right ascension
Unknown
Apparent Declination
Unknown
Sunlit
N/A
Visualization observer readout
Local Sidereal Time
23:19:54
Azimuth
Unknown
Elevation
Unknown
Doppler factor
Unknown
Orbital elements
Apogee altitude
690.271 km
Perigee altitude
675.868 km
Semi-major axis
7,061.206 km
Eccentricity
0.00102
Inclination
82.9063°
RAAN
202.1615°
Arg. of periapsis
54.5905°
True anomaly
305.52993°
Mean anomaly
305.625°
Eccentric anomaly
305.57747°
Mean motion
3.65784 °/min
Orbital period
98.42 mins
BSTAR
0.0012332
Loading maneuver chart data...
Computing Atmospheric mass density...
Loading historical data...
Loading historical data...
Loading historical data...
Loading historical data...
Loading historical data...
Loading historical data...
Loading historical data...
Other satellites on launch #22 in the year 1980 (1980-03-17 UTC)

Documentation

Showing up to 5 results
|